www.pogodaiklimat.ru

ПОГОДА в Руби, AK

  • Прогноз погоды в Руби
  • Монитор погоды в Руби
  • Климат в Руби

АРХИВ ПОГОДЫ в Руби

Время (UTC), дата Ветер
(напр.,м/с)
 
Видим.   Явления Облачность Т
(С)
Тd
(С)
f
(%)
Тe
(С)
Тes
(С)
Комфортность

P
(гПа)

Po
(гПа)
Тmin
(С)
Tmax
(С)
R
(мм)
SD
(см)
06:56 20.03 С  16 км    ясно  -10.0  -13.9  73  -15  -15    1022.1  995.4         
07:56 20.03 СВ  16 км    ясно  -10.0  -14.4  70  -16  -16    1022.2  995.0         
08:56 20.03 В  16 км    ясно  -11.7  -14.4  80  -18  -18    1021.5  994.4         
09:56 20.03 В  16 км    ясно  -11.7  -15.0  76  -18  -18    1020.9  994.0         
10:56 20.03 СВ  16 км    ясно  -12.2  -16.1  73  -18  -18    1020.0  993.0  -12.2  -8.9     
11:56 20.03 СВ  16 км    ясно  -11.7  -16.7  66  -18  -18    1018.8  991.7         
12:56 20.03 СВ  16 км    ясно  -12.2  -16.7  69  -19  -19    1018.0  991.1         
13:56 20.03   16 км    ясно  -13.9  -17.8  72  -14  -14    1016.5  989.7         
14:56 20.03 СЗ  16 км    ясно  -13.3  -17.8  69  -17  -17    1015.5  988.7         
15:56 20.03 СЗ  16 км    8/0 2400 м
[средняя] 
-13.3  -18.3  66  -19  -19    1014.1  987.1         
16:56 20.03 СЗ  16 км    10/0 2400 м
[средняя] 
-13.3  -18.3  66  -20  -20    1012.4  985.8  -13.9  -11.7     
17:56 20.03 СЗ  16 км    10/0 3300 м
[средняя] 
-12.8  -18.3  63  -18  -18    1011.4  984.8         
18:56 20.03 СЗ  16 км    10/5 1950 м
[средняя] 
-11.1  -17.2  61  -15  -14    1009.9  983.5         
19:56 20.03 З  16 км    10/10 1950 м  -11.7  -16.7  66  -15  -15    1008.8  982.1         
20:56 20.03   16 км    10/0 2100 м
[средняя] 
-10.6  -16.1  64  -11  -9    1007.6  980.8         
21:56 20.03   16 км    10/10 1950 м  -9.4  -16.1  58  -10  -10    1006.2  979.8         
22:56 20.03 З  16 км    10/10 1800 м  -8.3  -14.4  61  -12  -12    1004.3  977.8  -13.3  -8.3     
23:56 20.03 СЗ  14 км  слабый снег  10/10 1650 м  -8.9  -14.4  64  -15  -15    1003.6  977.2         
00:56 21.03 СЗ  16 км    10/0 2250 м
[средняя] 
-8.9  -13.3  70  -15  -14    1002.6  976.2         
01:56 21.03 З  16 км    10/0 2100 м
[средняя] 
-8.9  -12.8  73  -14  -14    1002.0  975.5         
02:56 21.03 СЗ  16 км    10/0 2700 м
[средняя] 
-7.8  -11.7  74  -11  -11    1001.3  974.9         
03:56 21.03 С  16 км    10/0 2250 м
[средняя] 
-7.8  -11.7  74  -11  -11    1000.7  974.5         
04:56 21.03 нст  16 км    10/0 2100 м
[средняя] 
-7.2  -11.7  70  -11  -11    1000.8  974.5  -9.4  -7.2     
05:56 21.03 СЗ  16 км    8/8 1800 м  -8.3  -11.7  76  -14  -14    1001.3  974.9         
06:56 21.03   13 км  слабый снег  10/8 1140 м
[средняя] 
-7.8  -11.1  77  -8  -8    1001.4  975.2         
07:15 21.03   4 км  слабый снег  10/10 1140 м  -8.0  -11.0  79  -9  -9      975.2         
07:26 21.03   5 км  слабый снег  10/10 1200 м  -8.0  -11.0  79  -9  -9      975.2         
07:56 21.03 СЗ  8 км  слабый снег  10/10 1110 м  -7.8  -10.6  80  -11  -11    1001.9  975.5         
08:25 21.03   4 км  слабый снег  10/10 780 м  -8.0  -11.0  79  -9  -9      975.8         
08:56 21.03   4 км  слабый снег, дымка  10/10 540 м  -8.3  -10.6  83  -9  -9    1001.7  975.5         
09:02 21.03   6 км  слабый снег, дымка  10/10 540 м  -8.0  -11.0  79  -9  -9      975.5         
09:56 21.03 В  14 км  слабый снег  10/2 600 м
[средняя] 
-7.8  -9.4  88  -13  -13    1002.0  975.5         
10:56 21.03 В  14 км  слабый снег  10/2 600 м
[средняя] 
-6.7  -8.9  84  -10  -10    1002.2  975.8  -8.3  -6.7     
11:07 21.03 В  16 км    10/8 600 м
[средняя] 
-7.0  -9.0  86  -12  -12      975.5         
11:56 21.03 В  14 км  слабый снег  10/10 600 м  -6.7  -8.9  84  -10  -10    1002.3  975.8         
12:56 21.03   14 км  слабый снег  10/10 660 м  -6.1  -8.3  84  -7  -7    1003.0  976.5         
13:19 21.03   16 км    10/10 660 м  -7.0  -9.0  86  -8  -8      976.5         
13:56 21.03   14 км    10/8 1500 м
[средняя] 
-6.1  -8.3  84  -7  -7    1002.9  976.5         
14:56 21.03 В  16 км    10/8 1650 м
[средняя] 
-6.1  -8.3  84  -12  -12    1002.7  976.5         
15:56 21.03 В  16 км    10/2 1800 м
[средняя] 
-5.6  -8.3  81  -12  -12    1003.5  977.2         
16:56 21.03 В  16 км    10/0 2700 м
[средняя] 
-5.0  -8.3  78  -11  -11    1003.5  977.2  -7.2  -5.0     
17:56 21.03 В  14 км  слабый снег  10/0 2100 м
[средняя] 
-4.4  -8.3  74  -12  -12    1003.7  977.5         
18:56 21.03 В  16 км    10/0 2100 м
[средняя] 
-3.3  -7.8  71  -10  -10    1004.5  977.8         
19:56 21.03 В  16 км    10/0 2550 м
[средняя] 
-2.2  -7.8  65  -9  -9    1004.4  977.8         
20:56 21.03 В  16 км    2/0 2850 м
[средняя] 
-0.6  -6.7  63  -6  -4    1004.4  977.8         
21:56 21.03 В  16 км    2/0 2700 м
[средняя] 
+1.7  -6.7  54  -4  -3    1004.5  977.8         
22:56 21.03 В  16 км    ясно  +2.8  -6.1  52  -2  -1    1004.0  977.5  -5.0  +2.8  0.5   
23:56 21.03 СВ  16 км    10/2 1650 м
[средняя] 
+3.9  -5.0  52  0  +1    1003.5  977.2         

 

Местоположение метеостанции Ruby Airport: широта 64.7272 долгота -155.4697 высота над уровнем моря 199 м.

В архиве по умолчанию представлена погода в Руби за последние 1-2 суток. Обновление информации о фактической погоде в базе происходит ежечасно! Архивные данные за месяц целиком и за предыдущие месяцы Вы можете получить, выбрав интересующий диапазон дат из раскрывающегося списка и нажав кнопку "Ввод!".

Внимание! Архив погоды МЕТАР в базе сайта хранится не более 60 дней. Нет смысла пытаться выбрать более раннюю дату.

Внимание! Время в таблицах - всемирное. Для получения местного времени необходимо прибавить поправку, которая в Руби равна -9 ч.

Ветер - указаны скорость ветра в м/с и направление, откуда дует ветер: С - северный, СВ - северо-восточный, В - восточный, ЮВ - юго-восточный, Ю - южный, ЮЗ - юго-западный, З - западный, СЗ - северо-западный.
Видимость - горизонтальная дальность видимости в метрах или километрах. При видимости от 1 до 10 км при отсутствии осадков обычно наблюдается дымка, при ухудшении видимости до 1 км и менее - туман. В сухую погоду видимость может ухудшаться дымом, пылью или мглою.
Атмосферные явления - указаны явления, наблюдавшиеся в указанный момент времени.
Облачность - указаны через наклонную черту верхняя и нижняя облачность в баллах и высота нижней границы облаков в метрах. Внимание: облачность, как и прочие метеорологические величины в США измеряются автоматическими метеостанциями. Указанные значения в баллах носят условный характер и показывают процент времени, в течение которого, в среднем, лазерный луч высотомера отражался от облаков обратно.
T - Температура воздуха - температура, измеренная на высоте 2 м над землей.
Td - Температура точки росы - температура, при понижении до которой содержащийся в воздухе водяной пар достигнет насыщения.
f - Относительная влажность воздуха - влажноcть воздуха, измеренная на высоте 2 м над землей.
Te - Эффективная температура - температура, которую ощущает одетый по сезону человек в тени. Характеристика душности погоды. При расчете учитывается влияние влажности воздуха и скорости ветра на теплоощущения человека.
Tes - Эффективная температура на солнце - температура, которую ощущает человек, с поправкой на солнечный нагрев. Характеристика знойности погоды. Зависит от высоты солнца над горизонтом, облачности и скорости ветра. Ночью, в пасмурную погоду, а также при ветре 12 м/с и более поправка равна нулю.
P - Атмосферное давление - приведенное к уровню моря атмосферное давление.
Po - Атмосферное давление - измеренное на уровне метеостанции атмосферное давление.
Tmin - Минимальная температура - минимум температуры воздуха на высоте 2 м над землей.
Tmax - Максимальная температура - максимум температуры воздуха на высоте 2 м над землей.
R - Количество осадков - Количество выпавших осадков за 3 или 6 часов, мм.
SD - Снежный покров - Высота снежного покрова, см.